Content
SEND FEEDBACK

Daily
Averages
Monthly
Summary
United States of America

HALSEY, NEBRASKA


Home > North America > United States > Nebraska
Elevation: 2822 feet     Latitude: 41 54N     Longitude: 100 19W

WEATHER
 
SELECT A DAY
Number of Records: 256,217;   Date Range: 6/10/04 - 9/29/14
 
SHARE

PRINT THIS DATA

[ ← Previous Day ]
WEATHER ALMANAC - FEBRUARY 13, 2013
[ Next Day → ]
[ °C ]   °F
Weather ElementAverageHighLow
Temperature36.1 °F48.6 °F (4:15 pm)22.8 °F (6:35 am)
Dewpoint21.8 °F31.6 °F (8:55 pm)14.5 °F (6:35 am)
Humidity58.1 %82 % (10:35 pm)39 % (11:35 am)
Barometer29.84 in29.92 in (12:35 am)29.76 in (5:15 pm)
Wind Speed12.4 mph25.3 mph (8:15 pm)
Wind Gust31.1 mph (11:35 am)
Weather ElementAverage
Visibility10 mi
Wind DirectionWNW (287 °)

Weather ElementTotal
Precipitation---
Heating Degree Days29.3 (Base 65)
Averaged from 71 records on February 13, 2013
WEATHER CONDITIONS BREAKOUT
WIND DIRECTION BREAKOUT
WEATHER BY HOUR - FEBRUARY 13, 2013
[ °C ]   °F
Local TimeTemperatureDewpointHumidityBarometerVisibilityWind DirectionWind SpeedGust SpeedPrecipitationEventsConditions
12:35 AM29.3 °F19.2 °F66 %29.92 in10.0 miWNW (290°)11.5 mphScattered Clouds
12:55 AM29.3 °F19.8 °F68 %29.92 in10.0 miWNW (290°)10.4 mphOvercast
1:15 AM29.7 °F19.8 °F67 %29.92 in10.0 miWNW (290°)9.2 mphOvercast
1:35 AM30.6 °F19.0 °F62 %29.91 in10.0 miWNW (290°)6.9 mphOvercast
1:55 AM29.1 °F18.5 °F65 %29.91 in10.0 miWest (270°)6.9 mphMostly Cloudy
2:15 AM29.5 °F17.6 °F61 %29.90 in10.0 miWNW (300°)9.2 mphScattered Clouds
2:35 AM28.8 °F16.9 °F61 %29.90 in10.0 miWNW (290°)8.1 mphClear
2:55 AM28.8 °F16.5 °F60 %29.90 in10.0 miWest (280°)10.4 mphClear
3:15 AM28.9 °F16.3 °F59 %29.89 in10.0 miWest (280°)8.1 mphClear
3:35 AM28.2 °F16.7 °F62 %29.89 in10.0 miWest (280°)8.1 mphClear
3:55 AM29.3 °F17.2 °F61 %29.88 in10.0 miWest (280°)8.1 mphScattered Clouds
4:15 AM29.3 °F17.6 °F62 %29.87 in10.0 miWest (280°)10.4 mphScattered Clouds
4:35 AM29.1 °F17.4 °F62 %29.87 in10.0 miWest (270°)10.4 mphClear
4:55 AM27.5 °F16.7 °F64 %29.86 in10.0 miWest (270°)5.8 mphClear
5:15 AM26.4 °F16.2 °F65 %29.86 in10.0 miWest (270°)9.2 mphClear
5:35 AM26.2 °F15.8 °F65 %29.86 in10.0 miWest (270°)9.2 mphClear
5:55 AM24.8 °F15.4 °F68 %29.86 in10.0 miWest (270°)6.9 mphClear
6:15 AM23.7 °F15.1 °F70 %29.85 in10.0 miWest (280°)6.9 mphClear
6:35 AM22.8 °F14.5 °F71 %29.85 in10.0 miWNW (300°)4.6 mphClear
6:55 AM23.2 °F14.9 °F71 %29.85 in10.0 miWNW (290°)8.1 mphClear
7:15 AM24.1 °F15.1 °F69 %29.84 in10.0 miWNW (290°)10.4 mphClear
7:35 AM24.8 °F15.3 °F67 %29.84 in10.0 miWNW (290°)9.2 mphClear
7:55 AM25.3 °F15.3 °F66 %29.84 in10.0 miWNW (290°)10.4 mphClear
8:15 AM26.2 °F15.6 °F64 %29.84 in10.0 miWNW (290°)11.5 mphClear
8:35 AM27.7 °F16.0 °F62 %29.84 in10.0 miWest (280°)11.5 mphClear
8:55 AM29.3 °F16.7 °F59 %29.83 in10.0 miWest (270°)9.2 mphClear
9:15 AM31.6 °F16.9 °F54 %29.83 in10.0 miWest (280°)13.8 mphClear
9:35 AM33.1 °F17.6 °F53 %29.84 in10.0 miWest (280°)12.7 mphClear
9:55 AM34.7 °F17.4 °F49 %29.83 in10.0 miWest (280°)15.0 mph20.7 mphClear
10:15 AM36.1 °F18.0 °F48 %29.84 in10.0 miWNW (290°)15.0 mph20.7 mphClear
10:35 AM37.9 °F18.5 °F46 %29.83 in10.0 miWest (280°)15.0 mph21.9 mphClear
10:55 AM39.2 °F19.2 °F45 %29.83 in10.0 miWNW (290°)18.4 mph28.8 mphClear
11:15 AM40.8 °F19.4 °F42 %29.82 in10.0 miWNW (290°)17.3 mph23.0 mphScattered Clouds
11:35 AM42.3 °F19.0 °F39 %29.82 in10.0 miWNW (290°)17.3 mph31.1 mphMostly Cloudy
11:55 AM41.9 °F19.8 °F41 %29.82 in10.0 miWNW (290°)19.6 mph27.6 mphMostly Cloudy
12:15 PM42.6 °F19.9 °F40 %29.82 in10.0 miWNW (290°)20.7 mph24.2 mphMostly Cloudy
12:35 PM43.9 °F20.8 °F40 %29.81 in10.0 miWNW (290°)20.7 mph27.6 mphMostly Cloudy
12:55 PM43.3 °F21.9 °F43 %29.81 in10.0 miWNW (290°)18.4 mph24.2 mphMostly Cloudy
1:15 PM43.9 °F21.6 °F41 %29.80 in10.0 miWNW (290°)20.7 mph26.5 mphOvercast
1:35 PM44.6 °F22.3 °F41 %29.80 in10.0 miWNW (290°)16.1 mph23.0 mphMostly Cloudy
1:55 PM45.7 °F23.2 °F41 %29.79 in10.0 miWNW (290°)17.3 mph21.9 mphOvercast
2:15 PM45.9 °F23.5 °F41 %29.78 in10.0 miWest (280°)18.4 mphScattered Clouds
2:35 PM47.1 °F24.3 °F41 %29.78 in10.0 miWest (270°)17.3 mphScattered Clouds
2:55 PM46.0 °F23.4 °F41 %29.77 in10.0 miWest (280°)18.4 mphScattered Clouds
3:15 PM47.3 °F23.7 °F40 %29.77 in10.0 miWest (280°)17.3 mph24.2 mphClear
3:35 PM47.8 °F24.4 °F40 %29.77 in10.0 miWest (280°)17.3 mph25.3 mphClear
3:55 PM48.2 °F24.6 °F40 %29.77 in10.0 miWest (280°)19.6 mph23.0 mphClear
4:15 PM48.6 °F24.6 °F39 %29.77 in10.0 miWest (280°)15.0 mph25.3 mphClear
4:35 PM48.4 °F24.6 °F39 %29.77 in10.0 miWest (280°)15.0 mphClear
4:55 PM48.2 °F24.4 °F39 %29.77 in10.0 miWest (280°)13.8 mphClear
5:15 PM47.5 °F24.4 °F41 %29.76 in10.0 miWest (270°)10.4 mphClear
5:35 PM46.2 °F25.2 °F44 %29.77 in10.0 miWest (280°)10.4 mphClear
5:55 PM43.9 °F25.7 °F49 %29.78 in10.0 miWest (280°)9.2 mphClear
6:15 PM41.9 °F26.2 °F54 %29.78 in10.0 miWest (280°)8.1 mphClear
6:35 PM41.0 °F26.6 °F57 %29.79 in10.0 miWNW (290°)5.8 mphScattered Clouds
6:55 PM41.7 °F27.0 °F56 %29.80 in10.0 miNW (310°)11.5 mph18.4 mphMostly Cloudy
7:15 PM41.0 °F28.8 °F62 %29.81 in10.0 miNW (310°)9.2 mphOvercast
7:35 PM40.3 °F30.2 °F67 %29.82 in10.0 miNW (320°)19.6 mph25.3 mphOvercast
7:55 PM39.9 °F29.3 °F66 %29.83 in10.0 miNW (310°)17.3 mphOvercast
8:15 PM40.5 °F28.8 °F63 %29.84 in10.0 miNW (320°)25.3 mph29.9 mphOvercast
8:35 PM37.6 °F31.5 °F79 %29.85 in10.0 miWNW (290°)15.0 mph23.0 mphMostly Cloudy
8:55 PM37.0 °F31.6 °F81 %29.85 in10.0 miWNW (290°)12.7 mphMostly Cloudy
9:15 PM37.6 °F30.9 °F77 %29.87 in10.0 miWNW (290°)12.7 mph20.7 mphOvercast
9:35 PM36.7 °F30.9 °F80 %29.87 in10.0 miWNW (290°)9.2 mphMostly Cloudy
9:55 PM36.5 °F30.9 °F80 %29.88 in10.0 miWNW (290°)9.2 mphClear
10:15 PM35.8 °F30.2 °F80 %29.89 in10.0 miWNW (290°)9.2 mphClear
10:35 PM34.9 °F30.0 °F82 %29.89 in10.0 miWNW (300°)9.2 mphClear
10:55 PM35.8 °F29.3 °F77 %29.90 in10.0 miWNW (300°)8.1 mphClear
11:15 PM35.1 °F28.4 °F77 %29.91 in10.0 miWNW (290°)10.4 mphClear
11:35 PM34.7 °F28.0 °F77 %29.91 in10.0 miWNW (300°)8.1 mphClear
11:55 PM34.2 °F27.7 °F77 %29.91 in10.0 miNW (310°)9.2 mphClear
Hourly data recorded from KTIF, located miles away from Halsey, Nebraska







STORIES FROM OUR PARTNERS